| time (UTC) | temp F | wind direction | speed MPH | gust MPH | rain 1hr in | rain 24hr in | rain mn in | humidity % | barometer mb |
| 20260904043039 | 69 | 294 | 0.0 | 0.0 | 0.00 | 1.12 | 0.00 | 95 | 1014.2 |
| 20260904041542 | 69 | 294 | 0.0 | 0.0 | 0.00 | 1.12 | 0.00 | 96 | 1014.3 |
| 20260904040038 | 69 | 293 | 0.0 | 0.0 | 0.01 | 1.12 | 1.12 | 96 | 1014.1 |
| 20260904034536 | 69 | 292 | 0.0 | 0.0 | 0.05 | 1.12 | 1.12 | 96 | 1014.0 |
| 20260904033035 | 69 | 285 | 0.0 | 3.0 | 0.05 | 1.12 | 1.12 | 96 | 1013.6 |
| 20260904031533 | 69 | 103 | 0.0 | 0.0 | 0.05 | 1.12 | 1.12 | 95 | 1013.6 |
| 20260904030033 | 69 | 62 | 0.0 | 0.0 | 0.04 | 1.12 | 1.12 | 95 | 1013.6 |
| 20260904024533 | 69 | 61 | 0.0 | 0.0 | 0.00 | 1.08 | 1.08 | 95 | 1013.6 |
| 20260904023031 | 69 | 62 | 0.0 | 0.0 | 0.00 | 1.08 | 1.08 | 95 | 1013.7 |
| 20260904021535 | 69 | 67 | 0.0 | 0.0 | 0.00 | 1.08 | 1.08 | 95 | 1013.7 |
| 20260904020031 | 69 | 67 | 0.0 | 0.0 | 0.00 | 1.08 | 1.08 | 95 | 1013.3 |
| 20260904014531 | 69 | 67 | 0.0 | 0.0 | 0.00 | 1.08 | 1.08 | 95 | 1013.3 |
| 20260904013029 | 70 | 93 | 0.0 | 0.0 | 0.00 | 1.08 | 1.08 | 95 | 1013.1 |
| 20260904011535 | 70 | 97 | 0.0 | 0.0 | 0.00 | 1.08 | 1.08 | 95 | 1013.2 |
| 20260904010040 | 70 | 78 | 0.0 | 0.0 | 0.00 | 1.08 | 1.08 | 95 | 1013.4 |
| 20260904004527 | 70 | 79 | 0.0 | 0.0 | 0.01 | 1.08 | 1.08 | 95 | 1013.4 |
| 20260904003028 | 70 | 87 | 0.0 | 0.0 | 0.01 | 1.08 | 1.08 | 94 | 1013.4 |
| 20260904001526 | 70 | 90 | 0.0 | 0.0 | 0.03 | 1.08 | 1.08 | 95 | 1013.7 |
| 20260904000030 | 70 | 90 | 0.0 | 0.0 | 0.07 | 1.08 | 1.08 | 95 | 1013.6 |
| 20260903234525 | 70 | 90 | 0.0 | 0.0 | 0.14 | 1.07 | 1.07 | 95 | 1014.4 |
| 20260903233023 | 70 | 84 | 0.0 | 0.0 | 0.24 | 1.07 | 1.07 | 95 | 1014.9 |
| 20260903231524 | 70 | 84 | 0.0 | 0.0 | 0.80 | 1.05 | 1.05 | 94 | 1015.6 |
| 20260903230025 | 70 | 345 | 0.0 | 8.0 | 0.88 | 1.01 | 1.01 | 94 | 1016.1 |
| 20260903224522 | 70 | 313 | 0.0 | 7.0 | 0.86 | 0.93 | 0.93 | 93 | 1016.2 |
| 20260903223030 | 70 | 19 | 1.0 | 16.0 | 0.82 | 0.83 | 0.83 | 91 | 1015.7 |
| 20260903221516 | 75 | 273 | 5.0 | 20.0 | 0.25 | 0.25 | 0.25 | 85 | 1016.1 |
| 20260903220015 | 79 | 146 | 0.0 | 5.0 | 0.13 | 0.13 | 0.13 | 85 | 1012.6 |
| 20260903214518 | 82 | 320 | 0.0 | 0.0 | 0.07 | 0.07 | 0.07 | 82 | 1012.5 |
| 20260903213017 | 84 | 305 | 0.0 | 0.0 | 0.01 | 0.01 | 0.01 | 77 | 1013.1 |
| 20260903211513 | 85 | 36 | 0.0 | 0.0 | 0.00 | 0.00 | 0.00 | 72 | 1012.2 |
| 20260903210013 | 86 | 65 | 0.0 | 3.0 | 0.00 | 0.00 | 0.00 | 70 | 1011.9 |
| 20260903204512 | 86 | 71 | 0.0 | 0.0 | 0.00 | 0.00 | 0.00 | 70 | 1011.0 |
| 20260903203011 | 86 | 9 | 0.0 | 3.0 | 0.00 | 0.00 | 0.00 | 72 | 1011.4 |
| 20260903201510 | 85 | 99 | 1.0 | 7.0 | 0.00 | 0.00 | 0.00 | 72 | 1011.3 |
| 20260903200011 | 85 | 47 | 0.0 | 5.0 | 0.00 | 0.00 | 0.00 | 74 | 1011.3 |
| 20260903194507 | 84 | 84 | 1.0 | 7.0 | 0.00 | 0.00 | 0.00 | 74 | 1011.8 |
| 20260903193005 | 86 | 88 | 0.0 | 5.0 | 0.00 | 0.00 | 0.00 | 72 | 1011.8 |
| 20260903191508 | 91 | 111 | 3.0 | 11.0 | 0.00 | 0.00 | 0.00 | 64 | 1012.0 |
| 20260903190003 | 92 | 346 | 1.0 | 8.0 | 0.00 | 0.00 | 0.00 | 63 | 1012.1 |
| 20260903184502 | 91 | 225 | 1.0 | 6.0 | 0.00 | 0.00 | 0.00 | 64 | 1012.5 |
| 20260903183059 | 91 | 41 | 0.0 | 1.0 | 0.00 | 0.00 | 0.00 | 67 | 1012.4 |
| 20260903181557 | 90 | 238 | 0.0 | 6.0 | 0.00 | 0.00 | 0.00 | 68 | 1012.6 |
| 20260903180059 | 89 | 284 | 0.0 | 4.0 | 0.00 | 0.00 | 0.00 | 69 | 1012.6 |
| 20260903174554 | 89 | 283 | 0.0 | 5.0 | 0.00 | 0.00 | 0.00 | 69 | 1012.9 |
| 20260903173053 | 90 | 262 | 0.0 | 4.0 | 0.00 | 0.00 | 0.00 | 68 | 1013.2 |
| 20260903171556 | 89 | 313 | 0.0 | 7.0 | 0.00 | 0.00 | 0.00 | 70 | 1013.4 |
| 20260903170050 | 89 | 275 | 0.0 | 3.0 | 0.00 | 0.00 | 0.00 | 71 | 1013.5 |
| 20260903164548 | 87 | 277 | 0.0 | 3.0 | 0.00 | 0.00 | 0.00 | 73 | 1013.5 |
| 20260903163042 | 86 | 250 | 0.0 | 1.0 | 0.00 | 0.00 | 0.00 | 76 | 1013.8 |
| 20260903161541 | 86 | 215 | 0.0 | 3.0 | 0.00 | 0.00 | 0.00 | 75 | 1014.0 |
| 20260903160057 | 85 | 292 | 0.0 | 3.0 | 0.00 | 0.00 | 0.00 | 76 | 1013.7 |
| 20260903154538 | 85 | 286 | 0.0 | 3.0 | 0.00 | 0.00 | 0.00 | 76 | 1013.9 |
| 20260903153037 | 85 | 276 | 2.0 | 5.0 | 0.00 | 0.00 | 0.00 | 76 | 1013.7 |
| 20260903151535 | 84 | 238 | 0.0 | 4.0 | 0.00 | 0.00 | 0.00 | 77 | 1013.9 |
| 20260903150035 | 83 | 251 | 0.0 | 2.0 | 0.00 | 0.00 | 0.00 | 79 | 1014.0 |
| 20260903144531 | 82 | 242 | 0.0 | 3.0 | 0.00 | 0.00 | 0.00 | 80 | 1014.0 |
| 20260903143027 | 82 | 303 | 0.0 | 4.0 | 0.00 | 0.00 | 0.00 | 80 | 1014.0 |
| 20260903141526 | 81 | 335 | 1.0 | 5.0 | 0.00 | 0.00 | 0.00 | 80 | 1014.2 |
| 20260903140024 | 80 | 263 | 0.0 | 3.0 | 0.00 | 0.00 | 0.00 | 83 | 1013.8 |
| 20260903134524 | 79 | 5 | 0.0 | 2.0 | 0.00 | 0.00 | 0.00 | 84 | 1014.0 |
| 20260903133023 | 77 | 323 | 0.0 | 1.0 | 0.00 | 0.00 | 0.00 | 86 | 1014.1 |
| 20260903131522 | 76 | 38 | 0.0 | 0.0 | 0.00 | 0.00 | 0.00 | 88 | 1014.2 |
| 20260903130022 | 75 | 348 | 0.0 | 0.0 | 0.00 | 0.00 | 0.00 | 90 | 1014.4 |
| 20260903124521 | 73 | 348 | 0.0 | 0.0 | 0.00 | 0.00 | 0.00 | 90 | 1014.4 |
| 20260903123021 | 73 | 348 | 0.0 | 0.0 | 0.00 | 0.00 | 0.00 | 90 | 1014.3 |
| 20260903121520 | 72 | 348 | 0.0 | 0.0 | 0.00 | 0.00 | 0.00 | 90 | 1014.2 |
| 20260903120021 | 72 | 346 | 0.0 | 0.0 | 0.00 | 0.00 | 0.00 | 89 | 1014.2 |
| 20260903114518 | 72 | 347 | 0.0 | 0.0 | 0.00 | 0.00 | 0.00 | 88 | 1014.3 |
| 20260903113016 | 72 | 80 | 0.0 | 0.0 | 0.00 | 0.00 | 0.00 | 88 | 1014.6 |
| 20260903111514 | 73 | 80 | 0.0 | 0.0 | 0.00 | 0.00 | 0.00 | 87 | 1014.6 |
| 20260903110013 | 73 | 79 | 0.0 | 0.0 | 0.00 | 0.00 | 0.00 | 86 | 1014.0 |
| 20260903104510 | 74 | 88 | 0.0 | 0.0 | 0.00 | 0.00 | 0.00 | 85 | 1014.5 |
| 20260903103012 | 75 | 88 | 0.0 | 1.0 | 0.00 | 0.00 | 0.00 | 84 | 1014.6 |
| 20260903101510 | 75 | 62 | 0.0 | 8.0 | 0.00 | 0.00 | 0.00 | 83 | 1014.6 |
| 20260903100007 | 75 | 72 | 0.0 | 6.0 | 0.00 | 0.00 | 0.00 | 82 | 1014.6 |
| 20260903094506 | 74 | 250 | 1.0 | 5.0 | 0.00 | 0.00 | 0.00 | 83 | 1013.8 |
| 20260903093004 | 74 | 313 | 0.0 | 0.0 | 0.00 | 0.00 | 0.00 | 82 | 1013.4 |
| 20260903091505 | 74 | 313 | 0.0 | 0.0 | 0.00 | 0.00 | 0.00 | 82 | 1013.2 |
| 20260903090007 | 74 | 313 | 0.0 | 0.0 | 0.00 | 0.00 | 0.00 | 81 | 1013.3 |
| 20260903084503 | 74 | 313 | 0.0 | 0.0 | 0.00 | 0.00 | 0.00 | 81 | 1013.0 |
| 20260903083004 | 75 | 313 | 0.0 | 0.0 | 0.00 | 0.00 | 0.00 | 82 | 1013.0 |
| 20260903081501 | 75 | 313 | 0.0 | 0.0 | 0.00 | 0.00 | 0.00 | 81 | 1013.0 |
| 20260903080112 | 75 | 313 | 0.0 | 0.0 | 0.00 | 0.00 | 0.00 | 81 | 1013.1 |
| 20260903074622 | 75 | 313 | 0.0 | 0.0 | 0.00 | 0.00 | 0.00 | 80 | 1013.4 |
| 20260903073109 | 76 | 313 | 0.0 | 0.0 | 0.00 | 0.00 | 0.00 | 79 | 1013.5 |
| 20260903071608 | 76 | 313 | 0.0 | 0.0 | 0.00 | 0.00 | 0.00 | 78 | 1013.2 |
| 20260903070053 | 77 | 313 | 0.0 | 0.0 | 0.00 | 0.00 | 0.00 | 77 | 1013.4 |
| 20260903064551 | 77 | 313 | 0.0 | 0.0 | 0.00 | 0.00 | 0.00 | 76 | 1013.7 |
| 20260903063049 | 78 | 313 | 0.0 | 0.0 | 0.00 | 0.00 | 0.00 | 75 | 1014.1 |
| 20260903061554 | 78 | 313 | 0.0 | 2.0 | 0.00 | 0.00 | 0.00 | 74 | 1014.2 |
| 20260903060045 | 79 | 244 | 0.0 | 6.0 | 0.00 | 0.00 | 0.00 | 74 | 1014.4 |
| 20260903054543 | 80 | 292 | 1.0 | 7.0 | 0.00 | 0.00 | 0.00 | 79 | 1014.4 |
| 20260903053039 | 80 | 265 | 0.0 | 0.0 | 0.00 | 0.00 | 0.00 | 82 | 1013.5 |
| 20260903051537 | 80 | 265 | 0.0 | 0.0 | 0.00 | 0.00 | 0.00 | 81 | 1013.2 |
| 20260903050035 | 80 | 265 | 0.0 | 0.0 | 0.00 | 0.00 | 0.00 | 80 | 1012.9 |
| 20260903044533 | 80 | 223 | 0.0 | 2.0 | 0.00 | 0.00 | 0.00 | 80 | 1012.6 |